Location: Baili�vre
(50.0696°N, 4.2409°E)
Time: 03:40:47
(UTC+00:00)

Cosmos 1725 Rocket - Pass Details

Date: 08 August 2020
Orbit: 961 x 991 km, 82.9° (Epoch: 25 September)

Event Time Altitude Azimuth Distance (km) Brightness Sun altitude
Exits shadow 22:27:15 42° 153° (SSE) 1,388 4.3 -21.7°
Maximum altitude 22:29:19 62° 94° (E) 1,108 4.1 -21.9°
Drops below altitude 10° 22:35:33 10° 15° (NNE) 2,766 7.1 -22.2°
Sets 22:38:07 0° 12° (NNE) 3,720 8.0 -22.3°
